{"data":{"norad_id":39013,"intl_designator":"2012-066C","name":"YAOGAN-16 01C","alt_names":[],"object_type":"PAYLOAD","status":"ACTIVE","operator":null,"country":"PRC","launch_date":"2012-11-25","launch_site_code":"JSC","launch_vehicle":null,"mission":null,"orbit_class":"UNKNOWN","rcs_meters":2.6512,"size_class":null,"mass_kg":null,"dimensions":null,"purposes":[],"wikipedia_slug":null,"has_3d_model":false,"image_url":null,"decayed_at":null,"tle_current":{"epoch":"2026-09-20T04:00:10.743264Z","epoch_age_seconds":62369,"freshness":"FRESH","line1":"1 39013U 12066C   26263.16679101 -.00000011  00000+0  74748-4 0  9997","line2":"2 39013  63.3541  44.1916 0443455  27.2515 335.1043 13.45513539678911","mean_motion":13.45513539,"eccentricity":0.0443455,"inclination_deg":63.3541,"raan_deg":44.1916,"arg_perigee_deg":27.2515,"mean_anomaly_deg":335.1043,"bstar":7.4748e-5,"rev_number":67891,"period_min":107.02233446645,"perigee_km":757.68545194316,"apogee_km":1419.9365364986,"semimajor_km":7466.9479942209,"source":"CELESTRAK","updated_at":"2026-09-20T09:00:13.896499Z"}}}